TimeAST,TemperatureF,Dew PointF,Humidity,Sea Level PressureIn,VisibilityMPH,Wind Direction,Wind SpeedMPH,Gust SpeedMPH,PrecipitationIn,Events,Conditions,WindDirDegrees,DateUTC
12:56 AM,77.0,73.0,88,29.97,10.0,Calm,Calm,-,N/A,,Scattered Clouds,0,2013-05-12 04:56:00
1:56 AM,78.1,72.0,81,29.95,10.0,Calm,Calm,-,N/A,,Scattered Clouds,0,2013-05-12 05:56:00
2:56 AM,77.0,72.0,84,29.95,10.0,Calm,Calm,-,N/A,,Scattered Clouds,0,2013-05-12 06:56:00
3:56 AM,77.0,72.0,84,29.94,10.0,Calm,Calm,-,N/A,,Partly Cloudy,0,2013-05-12 07:56:00
4:56 AM,75.9,72.0,87,29.94,10.0,Calm,Calm,-,N/A,,Scattered Clouds,0,2013-05-12 08:56:00
5:56 AM,77.0,72.0,84,29.95,10.0,Calm,Calm,-,N/A,,Scattered Clouds,0,2013-05-12 09:56:00
6:56 AM,78.1,72.0,81,29.98,10.0,Calm,Calm,-,N/A,,Partly Cloudy,0,2013-05-12 10:56:00
7:56 AM,81.0,73.0,77,29.99,10.0,Calm,Calm,-,N/A,,Partly Cloudy,0,2013-05-12 11:56:00
8:56 AM,82.0,72.0,71,30.00,10.0,North,4.6,-,N/A,,Partly Cloudy,350,2013-05-12 12:56:00
9:56 AM,82.9,73.0,72,30.01,10.0,North,5.8,-,N/A,,Scattered Clouds,350,2013-05-12 13:56:00
10:56 AM,82.0,72.0,71,30.00,10.0,North,8.1,-,N/A,,Scattered Clouds,10,2013-05-12 14:56:00
11:56 AM,84.9,73.0,67,30.00,10.0,Variable,6.9,-,N/A,,Scattered Clouds,0,2013-05-12 15:56:00
12:56 PM,86.0,73.0,65,29.97,10.0,NE,9.2,-,N/A,,Partly Cloudy,40,2013-05-12 16:56:00
1:56 PM,84.9,72.0,65,29.96,10.0,NNE,11.5,-,N/A,,Scattered Clouds,30,2013-05-12 17:56:00
2:56 PM,84.0,72.0,67,29.96,10.0,NE,5.8,-,N/A,,Mostly Cloudy,40,2013-05-12 18:56:00
3:56 PM,82.9,72.0,69,29.95,10.0,Variable,6.9,-,N/A,,Overcast,0,2013-05-12 19:56:00
4:56 PM,82.0,71.1,69,29.94,10.0,East,10.4,-,N/A,,Overcast,90,2013-05-12 20:56:00
5:56 PM,81.0,73.0,77,29.95,10.0,SE,3.5,-,0.00,,Overcast,130,2013-05-12 21:56:00
6:56 PM,80.1,72.0,76,29.96,10.0,East,3.5,-,N/A,,Mostly Cloudy,80,2013-05-12 22:56:00
7:56 PM,80.1,73.0,79,29.98,10.0,WSW,3.5,-,N/A,,Scattered Clouds,250,2013-05-12 23:56:00
8:56 PM,80.1,73.0,79,29.99,10.0,Calm,Calm,-,N/A,,Partly Cloudy,0,2013-05-13 00:56:00
9:56 PM,80.1,73.0,79,30.01,10.0,SSW,3.5,-,N/A,,Partly Cloudy,200,2013-05-13 01:56:00
10:56 PM,79.0,73.0,82,30.02,10.0,WSW,3.5,-,N/A,,Partly Cloudy,240,2013-05-13 02:56:00
11:56 PM,79.0,73.0,82,30.01,10.0,Calm,Calm,-,N/A,,Scattered Clouds,0,2013-05-13 03:56:00